Wind_Speed
43 45 47 49 51 53 53 53 54 55 56 57 58 58 58 57 57 56 55 54 54 54 54 53 53 52 52 51 51 52 53 54 55 55 56 57 57 57 55 54 52 50 48
48 50 51 53 53 54 54 54 54 55 56 57 58 59 59 58 57 56 55 55 55 54 53 53 52 52 51 51 51 51 52 53 53 53 54 56 57 56 55 54 52 51 49
51 52 52 53 53 53 54 54 54 55 56 57 58 59 59 59 58 57 56 55 55 55 54 53 53 53 52 52 52 52 52 51 51 50 50 51 53 53 52 51 49 49 48
56 56 56 56 57 58 58 59 59 59 59 60 61 61 61 61 60 58 57 57 56 55 55 55 54 54 53 52 52 53 52 52 51 49 48 49 49 50 49 48 49 49 50
58 59 61 63 65 66 67 67 68 67 67 65 64 64 64 63 62 60 59 58 57 56 55 54 53 53 51 51 51 52 53 53 52 50 49 49 49 49 49 49 48 49 51
65 67 70 72 74 75 75 75 75 74 72 69 67 66 65 64 63 61 59 57 56 55 53 52 51 50 49 49 50 51 53 53 53 52 50 50 49 49 49 49 48 50 51
74 77 79 80 80 80 80 79 78 75 72 69 67 65 64 64 63 60 57 54 52 51 50 50 49 48 48 48 50 51 52 52 52 51 49 49 49 48 48 48 49 50 51
82 83 83 83 83 82 80 78 74 71 68 65 63 61 61 60 58 55 52 49 47 47 47 48 47 47 47 48 49 50 51 51 51 49 49 48 47 47 47 47 48 49 49
84 85 84 82 80 77 73 70 66 63 60 59 57 55 54 55 53 51 50 48 48 48 47 47 46 46 46 47 48 49 49 49 48 48 47 46 46 46 46 47 47 48 47
84 82 80 76 71 67 63 60 57 55 52 52 52 51 52 54 53 51 49 47 46 47 48 48 47 45 44 44 45 46 47 46 46 45 43 43 43 44 44 44 44 44 44
75 72 69 65 61 57 54 52 51 50 49 49 51 51 53 52 50 49 47 45 44 45 46 47 47 46 44 44 44 45 45 44 43 42 40 40 40 41 41 41 41 42 43
63 62 62 61 57 53 50 48 48 47 47 48 51 53 53 52 51 50 48 45 44 44 45 46 47 45 44 44 43 43 43 42 40 39 39 39 38 39 39 39 39 40 41
58 61 63 62 59 54 50 48 46 46 45 45 48 52 53 53 53 50 45 44 44 45 46 46 45 44 43 43 42 41 40 39 39 39 39 38 38 38 38 38 38 38 39
61 65 66 63 58 53 48 45 42 40 39 39 41 46 51 52 49 43 42 44 44 43 42 42 43 42 40 39 38 39 39 39 39 40 40 40 39 39 38 38 38 38 39
65 67 65 59 52 46 43 40 36 33 31 31 33 37 42 45 42 41 42 42 39 36 36 39 41 40 38 37 37 38 39 40 40 40 41 41 40 40 40 39 40 40 40
65 65 59 50 41 37 34 32 31 28 26 24 25 28 33 38 40 41 39 35 32 32 36 39 39 38 37 35 36 37 38 38 38 40 41 42 42 42 42 41 41 41 42
63 60 49 37 30 26 24 24 25 25 23 21 19 20 24 28 31 32 31 28 29 32 34 34 33 33 34 34 34 35 36 36 37 39 40 42 44 44 44 44 43 43 44
57 51 40 29 21 17 17 19 22 23 23 21 18 17 18 21 23 23 24 25 27 29 29 28 28 29 30 32 32 33 35 36 38 39 41 43 44 45 45 44 44 45 45
50 44 34 25 18 14 15 18 20 22 23 22 20 18 19 20 21 22 24 25 27 27 26 26 25 25 27 29 31 33 36 38 39 40 41 42 43 44 44 45 46 47 47
43 38 31 24 18 14 15 17 18 20 21 21 21 21 22 22 23 24 25 26 27 27 26 25 24 24 25 27 30 34 38 40 42 43 43 44 44 45 45 46 47 47 48
38 35 30 25 20 18 17 17 18 19 20 22 23 24 25 25 25 26 27 28 29 29 28 27 26 26 26 27 30 33 37 41 44 45 46 46 46 47 47 47 48 49 50
36 34 30 27 24 23 22 21 21 21 22 23 25 27 28 29 29 30 30 31 32 32 32 32 31 30 30 31 32 34 38 42 44 46 47 48 48 48 48 49 49 50 50
36 35 33 30 28 26 26 26 26 27 27 28 29 30 32 33 33 34 34 35 35 36 37 37 37 37 37 37 37 38 40 42 44 46 48 49 49 49 49 49 49 50 50
38 37 36 34 32 30 29 28 28 28 29 30 31 32 33 35 37 38 38 39 39 40 41 42 42 42 42 42 42 43 43 44 44 45 46 47 48 49 49 49 50 50 51
39 40 39 36 34 33 32 31 31 30 29 29 30 31 32 34 36 39 42 43 44 45 46 47 48 48 48 48 48 47 47 46 46 46 46 47 48 49 50 50 51 51 52
40 41 39 37 35 33 32 31 31 31 31 31 31 31 32 34 36 39 42 45 47 49 51 52 52 53 53 53 53 52 50 49 49 49 49 50 50 51 51 52 53 54 54
Wind_Direction
292 293 292 292 291 291 289 288 286 285 284 283 283 282 281 280 279 279 277 277 276 276 276 275 275 274 273 271 269 269 268 265 264 262 259 256 254 252 252 252 252 251 250
296 295 294 294 294 292 291 289 287 285 283 282 281 281 280 279 279 278 277 276 276 276 275 274 272 272 271 269 267 266 265 263 261 259 257 254 252 251 251 250 250 249 248
299 299 298 297 297 295 294 292 289 287 285 283 282 281 280 279 278 277 276 275 274 274 273 272 271 271 270 268 266 264 262 259 257 255 253 251 250 250 248 247 248 248 248
302 302 302 302 301 300 298 296 293 291 288 286 283 282 280 278 277 275 274 272 271 270 270 270 270 271 269 267 264 261 258 255 252 250 249 249 248 246 246 246 248 249 251
302 302 302 302 301 300 299 297 295 293 290 288 284 281 279 277 275 273 271 269 268 268 268 269 270 269 267 264 262 258 254 251 248 247 247 246 246 246 247 248 250 252 254
302 302 302 301 300 299 297 295 293 291 289 286 282 279 276 274 272 270 269 268 267 267 267 267 267 267 265 262 259 256 253 249 247 246 245 245 245 247 248 250 253 256 258
302 302 302 301 299 297 295 292 290 288 285 282 278 274 271 269 268 267 268 267 267 266 265 265 266 265 264 263 260 256 253 249 246 244 244 244 246 248 250 253 256 259 260
303 302 301 299 296 295 293 291 288 285 281 276 272 269 266 265 265 265 266 266 266 265 265 266 267 267 267 266 263 258 252 248 244 242 242 244 247 250 253 256 259 260 261
301 299 298 297 296 295 293 290 286 281 276 271 267 264 261 260 260 261 262 264 267 267 268 268 269 270 269 267 263 258 252 246 242 241 242 245 248 251 255 258 260 260 259
301 300 300 299 298 296 293 289 284 278 271 265 261 258 257 257 258 261 264 268 269 270 271 271 271 271 270 268 264 257 249 242 239 239 242 245 249 253 256 258 258 258 259
305 303 302 302 300 298 295 290 285 279 270 262 257 253 254 256 258 262 265 268 270 272 273 272 271 271 270 269 264 256 246 240 238 238 241 246 251 254 256 257 259 259 259
306 306 305 304 302 299 296 292 287 283 275 265 256 252 251 254 257 259 263 266 269 270 272 272 271 271 270 268 263 255 245 239 237 238 241 246 252 255 257 259 261 261 260
310 310 308 305 301 297 293 290 288 285 280 271 260 252 250 250 253 256 259 263 268 271 272 271 271 270 270 267 260 252 243 238 237 238 242 247 252 256 259 262 263 263 262
315 313 309 305 300 294 289 285 285 286 284 277 265 255 250 250 252 254 259 263 267 268 266 266 267 268 266 263 257 250 243 240 239 240 244 249 254 258 261 263 264 264 262
317 315 311 306 299 292 287 283 282 284 287 280 268 257 250 251 252 255 258 262 262 258 256 258 262 263 262 260 256 251 246 243 242 243 247 251 256 259 261 264 265 264 263
322 321 317 310 300 291 285 282 279 281 286 281 267 254 248 249 253 254 256 255 250 249 252 258 261 261 258 256 255 252 249 247 247 248 251 254 257 260 262 264 266 266 264
329 329 326 319 309 296 287 284 280 279 284 282 268 252 244 245 248 250 249 246 247 252 256 259 260 258 256 253 252 253 254 253 253 253 255 257 259 260 261 263 264 265 265
335 337 337 332 323 309 294 289 286 282 285 283 272 257 247 244 244 246 248 249 251 252 252 255 257 256 255 253 252 254 258 259 259 258 258 259 260 260 261 262 263 263 264
339 342 343 342 335 318 301 295 292 290 288 285 275 262 252 247 248 251 254 253 252 251 253 256 259 260 260 260 259 258 260 262 263 263 262 261 261 260 261 261 262 263 263
340 344 345 342 337 322 308 302 297 295 292 286 276 266 260 256 256 257 257 255 253 254 255 258 261 265 267 269 269 268 266 265 264 263 263 263 263 262 262 262 262 262 263
339 341 341 338 332 322 312 304 299 297 293 287 280 271 264 262 261 261 260 258 256 255 256 259 261 265 269 273 275 274 273 270 266 264 264 264 264 264 263 262 262 261 261
336 337 336 332 326 318 309 302 296 294 291 286 281 275 269 264 262 262 262 261 259 257 258 260 263 266 270 274 278 279 276 273 270 267 265 264 264 263 261 261 260 260 259
335 334 331 328 323 317 310 302 297 293 289 285 281 277 273 267 263 262 262 261 260 259 260 263 265 268 271 274 277 279 280 278 274 270 267 265 263 262 260 259 259 258 258
333 331 329 324 320 316 312 308 303 298 292 288 284 279 274 269 265 263 262 262 262 262 264 266 268 270 272 274 276 277 279 278 274 271 268 265 263 261 260 260 259 259 259
330 330 328 324 320 315 310 307 304 302 299 295 290 284 278 273 268 265 263 263 264 265 267 269 271 272 274 275 275 275 275 273 271 269 267 265 263 261 260 260 260 260 259
329 328 327 325 322 319 315 311 306 302 298 294 291 288 283 277 273 269 268 266 267 268 269 271 272 274 275 275 274 274 273 270 268 268 267 266 264 263 262 261 260 260 259
Height
5765 5761 5757 5753 5748 5744 5740 5735 5731 5727 5723 5719 5716 5713 5711 5709 5707 5705 5704 5702 5701 5700 5699 5698 5697 5697 5696 5696 5696 5695 5696 5696 5697 5698 5699 5699 5699 5700 5702 5704 5706 5709 5711
5753 5748 5743 5738 5733 5729 5724 5720 5716 5711 5707 5703 5700 5697 5695 5692 5691 5689 5687 5685 5684 5683 5682 5681 5681 5681 5681 5680 5680 5680 5681 5682 5683 5684 5685 5686 5687 5688 5690 5692 5694 5696 5698
5739 5733 5728 5722 5717 5712 5708 5703 5699 5695 5691 5687 5684 5681 5678 5676 5674 5672 5671 5669 5667 5666 5666 5665 5665 5665 5665 5665 5665 5665 5666 5667 5668 5669 5671 5673 5674 5676 5678 5680 5681 5684 5686
5721 5716 5710 5705 5700 5695 5691 5686 5682 5678 5674 5670 5666 5663 5660 5658 5657 5655 5653 5652 5651 5650 5650 5650 5649 5649 5649 5649 5650 5650 5651 5652 5654 5656 5658 5660 5662 5664 5666 5668 5670 5671 5673
5705 5699 5693 5688 5682 5677 5672 5667 5663 5659 5654 5651 5647 5644 5641 5639 5638 5637 5635 5635 5634 5634 5634 5634 5634 5634 5634 5634 5634 5635 5636 5638 5640 5642 5644 5647 5649 5651 5654 5656 5658 5659 5660
5689 5682 5675 5669 5663 5657 5651 5647 5643 5639 5634 5631 5627 5624 5622 5620 5619 5618 5618 5618 5618 5618 5618 5618 5619 5619 5619 5619 5619 5620 5621 5623 5625 5628 5631 5634 5637 5639 5641 5644 5645 5646 5647
5671 5663 5656 5648 5641 5635 5628 5623 5619 5616 5612 5609 5607 5604 5602 5601 5600 5600 5601 5601 5602 5602 5602 5603 5603 5604 5604 5604 5604 5605 5606 5608 5610 5613 5616 5620 5623 5626 5628 5630 5632 5633 5634
5652 5643 5634 5626 5618 5611 5605 5599 5595 5592 5589 5586 5585 5584 5583 5583 5584 5585 5585 5585 5586 5587 5587 5588 5588 5589 5589 5588 5588 5589 5591 5593 5596 5599 5603 5607 5610 5613 5615 5617 5618 5620 5621
5634 5623 5614 5604 5596 5589 5582 5576 5572 5569 5567 5566 5565 5566 5567 5568 5569 5569 5570 5570 5571 5572 5572 5573 5574 5574 5574 5574 5573 5574 5575 5578 5582 5585 5590 5594 5597 5600 5602 5603 5605 5606 5607
5611 5600 5590 5582 5575 5567 5561 5556 5551 5548 5548 5548 5549 5551 5553 5554 5554 5555 5556 5557 5558 5558 5558 5558 5559 5560 5560 5560 5559 5560 5561 5564 5568 5572 5577 5581 5585 5587 5589 5590 5591 5592 5593
5589 5579 5570 5563 5556 5549 5543 5538 5534 5531 5530 5531 5532 5535 5537 5539 5540 5541 5542 5544 5544 5544 5544 5544 5545 5545 5546 5546 5546 5547 5548 5551 5555 5560 5565 5569 5572 5575 5576 5577 5578 5579 5580
5573 5563 5554 5546 5540 5534 5528 5523 5518 5515 5513 5513 5515 5517 5520 5522 5525 5527 5529 5530 5531 5531 5531 5530 5531 5531 5532 5533 5533 5534 5536 5539 5543 5548 5552 5556 5559 5561 5563 5564 5565 5566 5567
5560 5550 5540 5530 5523 5517 5512 5508 5503 5500 5497 5496 5497 5500 5503 5506 5510 5513 5515 5517 5517 5517 5517 5517 5518 5519 5520 5520 5521 5523 5525 5528 5532 5536 5540 5544 5546 5549 5550 5552 5553 5554 5556
5545 5533 5522 5512 5504 5499 5495 5492 5489 5486 5483 5481 5481 5483 5487 5491 5495 5499 5501 5503 5504 5504 5505 5506 5506 5507 5507 5508 5509 5512 5514 5517 5521 5525 5528 5531 5534 5536 5538 5540 5541 5542 5544
5531 5517 5503 5492 5485 5481 5479 5478 5477 5475 5473 5470 5469 5470 5473 5478 5482 5486 5488 5490 5491 5493 5494 5495 5495 5495 5496 5497 5499 5501 5503 5506 5509 5513 5516 5519 5522 5524 5526 5527 5529 5530 5531
5515 5500 5486 5475 5469 5467 5466 5466 5466 5466 5465 5462 5461 5461 5463 5467 5471 5474 5477 5479 5481 5482 5484 5484 5484 5485 5486 5488 5490 5491 5493 5495 5498 5501 5504 5507 5510 5512 5514 5515 5517 5518 5519
5502 5486 5472 5463 5459 5457 5458 5458 5458 5459 5458 5456 5455 5455 5456 5458 5462 5465 5467 5469 5471 5473 5473 5474 5474 5474 5476 5478 5480 5481 5482 5484 5487 5489 5492 5495 5497 5499 5501 5503 5504 5505 5505
5494 5480 5467 5459 5455 5454 5454 5454 5453 5453 5452 5451 5450 5449 5450 5452 5454 5457 5458 5460 5462 5463 5464 5464 5464 5465 5466 5468 5471 5471 5472 5473 5475 5478 5480 5482 5484 5486 5488 5489 5490 5490 5491
5490 5478 5468 5460 5455 5453 5452 5450 5449 5448 5447 5446 5445 5445 5445 5446 5447 5449 5450 5451 5453 5454 5455 5455 5456 5456 5457 5458 5460 5461 5462 5462 5464 5465 5467 5468 5470 5472 5474 5474 5474 5475 5476
5489 5478 5469 5462 5456 5452 5450 5448 5446 5444 5443 5442 5441 5440 5440 5440 5441 5441 5442 5443 5444 5445 5446 5446 5446 5447 5447 5448 5449 5450 5450 5451 5452 5453 5454 5455 5456 5457 5458 5459 5459 5460 5460
5487 5478 5469 5462 5457 5452 5448 5445 5442 5440 5438 5437 5436 5435 5435 5434 5434 5434 5434 5435 5436 5437 5437 5437 5437 5437 5437 5437 5438 5437 5437 5437 5437 5438 5439 5440 5441 5441 5442 5443 5444 5444 5445
5485 5476 5469 5462 5456 5450 5446 5442 5439 5436 5433 5432 5430 5429 5428 5427 5427 5426 5426 5427 5427 5427 5428 5427 5427 5426 5426 5426 5425 5425 5424 5423 5423 5423 5423 5424 5424 5425 5426 5426 5427 5428 5429
5481 5473 5466 5459 5453 5447 5442 5438 5434 5430 5427 5425 5423 5421 5420 5418 5418 5417 5417 5417 5417 5417 5417 5416 5416 5415 5414 5413 5412 5412 5410 5409 5407 5407 5407 5407 5407 5408 5409 5410 5411 5412 5413
5476 5469 5462 5455 5449 5442 5437 5432 5427 5423 5420 5417 5414 5412 5410 5409 5408 5407 5406 5406 5405 5405 5404 5403 5402 5401 5401 5399 5398 5397 5396 5394 5392 5391 5391 5391 5391 5391 5392 5393 5394 5395 5396
5470 5463 5455 5449 5442 5436 5430 5425 5421 5416 5412 5408 5405 5402 5400 5398 5396 5395 5394 5393 5392 5391 5390 5389 5387 5386 5385 5383 5382 5381 5380 5378 5376 5375 5374 5375 5375 5375 5376 5376 5377 5378 5379
5464 5456 5449 5441 5435 5428 5422 5417 5412 5408 5403 5400 5396 5393 5390 5387 5385 5383 5382 5380 5378 5376 5375 5373 5371 5369 5367 5365 5363 5363 5362 5361 5359 5358 5357 5357 5357 5358 5358 5359 5360 5361 5362